Miscellaneous Local Product
Issued by NWS Hastings, NE

Home | Current Version | Previous Version | Text Only | Print | Product List | Glossary Off
Versions: 1 2 3 4 5 6 7 8 9 10 11 12 13 14 15 16 17 18 19 20 21 22 23 24 25 26 27 28 29 30 31 32 33 34 35 36 37 38 39 40 41 42 43 44 45 46 47 48 49 50

000
AXUS43 KGID 160902
MISGRI

GID CWA HOURLY WEATHER ROUNDUP
NATIONAL WEATHER SERVICE HASTINGS NE
400 AM CDT TUE SEP 16 2014

NOTE: "FAIR" INDICATES FEW OR NO CLOUDS BELOW 12,000 FEET WITH NO
SIGNIFICANT WEATHER AND/OR OBSTRUCTIONS TO VISIBILITY.

...SOUTH CENTRAL NEBRASKA...

CITY           SKY/WX    TMP DP  RH WIND       PRES   REMARKS
GRAND ISLAND   CLEAR     47  43  86 SE8       30.25F
HASTINGS       CLEAR     48  42  80 S8        30.25F
KEARNEY        CLEAR     45  39  81 SE7       30.24F
ORD            CLEAR     42  39  89 CALM      30.22F
YORK           CLEAR     45  43  93 S5        30.26F
AURORA         CLEAR     46  42  87 S5        30.25F
LEXINGTON      CLEAR     47  44  89 SE7       30.23F
HOLDREGE       CLEAR     45  42  88 SE5       30.24F
HEBRON         CLEAR     41  39  93 CALM      30.27S

...NEBRASKA PANHANDLE...

CITY           SKY/WX    TMP DP  RH WIND       PRES   REMARKS
CHADRON        CLEAR     51  47  86 SE5       30.07F
ALLIANCE       PTCLDY    49  46  90 S10       30.11F
SCOTTSBLUFF    PTCLDY    52  50  93 E9        30.10F
SIDNEY         PTCLDY    51  49  92 S9        30.16F

...WESTERN AND NORTH CENTRAL NEBRASKA...

CITY           SKY/WX    TMP DP  RH WIND       PRES   REMARKS
VALENTINE      CLEAR     52  43  71 S8        30.14F
AINSWORTH      CLEAR     46  41  82 S9        30.17F
ONEILL         CLEAR     44  42  91 S8        30.21F
BROKEN BOW     CLEAR     42  40  92 SE3       30.21F
IMPERIAL       MOCLDY    51  45  79 SE9       30.19F
NORTH PLATTE   CLEAR     46  42  86 SE3       30.21F
MCCOOK         CLEAR     49  43  80 S6        30.23F

...EASTERN NEBRASKA...

CITY           SKY/WX    TMP DP  RH WIND       PRES   REMARKS
NORFOLK        CLEAR     43  40  89 S5        30.24F
SO SIOUX CITY  PTCLDY    41  40  96 E5        30.25F
TEKAMAH        PTCLDY    40  38  93 CALM      30.26F
ALBION         CLEAR     41  38  89 SE3       30.25F
OMAHA EPPLEY   PTCLDY    47  45  93 SE3       30.27F FOG
OFFUTT AFB     CLEAR     40  40 100 CALM      30.26F
MILLARD        CLEAR     45  44  97 CALM      30.26F FOG
LINCOLN        CLEAR     42  40  92 CALM      30.27F
NEBRASKA CITY  CLEAR     47  43  86 CALM      30.27S
BEATRICE       CLEAR     40  39  96 CALM      30.27S
FALLS CITY     CLEAR     44  43  96 W3        30.26S

...NORTHERN KANSAS...

CITY           SKY/WX    TMP DP  RH WIND       PRES   REMARKS
GOODLAND       CLOUDY    57  54  89 S10       30.23F
HILL CITY      CLEAR     45  41  86 CALM      30.25F
NORTON         SUNNY     48  41  76 SE6       30.23F
PHILLIPSBURG   CLEAR     43  43 100 CALM      30.25F
SMITH CENTER   CLEAR     45  43  93 E10       30.26S
BELOIT         CLEAR     45  45 100 CALM      30.25S
HAYS           CLEAR     48  43  81 E6        30.24F
RUSSELL        CLEAR     48  45  89 E6        30.23F
CONCORDIA      CLEAR     45  44  97 E3        30.26S
SALINA         CLEAR     53  48  83 E7        30.25F
TOPEKA         CLEAR     48  47  96 N3        30.26F



USA.gov is the U.S. government's official web portal to all federal, state and local government web resources and services.